Weather History for KSUA - November, 2013

Change the Weather History Date:

Thursday, November 21, 2013

  Actual Average Record
Temperature  
Mean Temperature 76 °F -  
Max Temperature 80 °F 78 °F 90 °F (1948)
Min Temperature 73 °F 62 °F 37 °F (2000)
Cooling Degree Days 12    
Growing Degree Days 26 (Base 50)    
Moisture  
Dew Point 68 °F    
Average Humidity 73    
Maximum Humidity 88    
Minimum Humidity 61    
Precipitation  
Precipitation 0.03 in - - ()
Sea Level Pressure  
Sea Level Pressure 30.13 in    
Wind  
Wind Speed 15 mph (East)    
Max Wind Speed 21 mph    
Max Gust Speed 28 mph    
Visibility 9 miles    
Events Rain    
Averages and records for this station are not official NWS values.
T = Trace of Precipitation, MM = Missing Value Source: NWS Daily Summary

Daily Weather History Graph

Daily Weather History Graph

Search for Another Location

Airport or City:

Trip Planner

Search our weather history database for the weather conditions in past years. The results will help you decide how hot, cold, wet, or windy it might be!

Date:

Astronomy

Nov. 21, 2013 Rise Set
Actual Time 6:45 AM EST 5:27 PM EST
Civil Twilight 6:20 AM EST 5:52 PM EST
Nautical Twilight 5:52 AM EST 6:20 PM EST
Astronomical Twilight 5:24 AM EST 6:48 PM EST
Moon 9:00 PM EST (11/21) 9:53 AM EST (11/21)
Length of Visible Light 11h 31m
Length of Day
10h 41m
Waning Gibbous, 85% of the Moon is Illuminated
Nov 21
Waning Gibbous
Nov 25
Last Quarter
Dec 2
New
Dec 9
First Quarter
Dec 17
Full

Hourly Weather History & Observations

Time (EST) Temp. Heat Index Dew Point Humidity Pressure Visibility Wind Dir Wind Speed Gust Speed Precip Events Conditions
12:15 AM 73.4 °F - 69.8 °F 88% 30.10 in 10.0 mi ENE 17.3 mph 21.9 mph N/A   Mostly Cloudy
12:35 AM 73.4 °F - 69.8 °F 88% 30.09 in 10.0 mi East 13.8 mph 19.6 mph N/A   Scattered Clouds
12:55 AM 73.4 °F - 69.8 °F 88% 30.09 in 5.0 mi East 20.7 mph 25.3 mph 0.02 in Rain Light Rain
1:15 AM 73.4 °F - 69.8 °F 88% 30.08 in 10.0 mi East 16.1 mph 24.2 mph N/A   Overcast
1:35 AM 73.4 °F - 69.8 °F 88% 30.08 in 10.0 mi East 13.8 mph 24.2 mph N/A   Overcast
1:55 AM 75.2 °F - 69.8 °F 83% 30.09 in 10.0 mi East 17.3 mph 20.7 mph N/A   Mostly Cloudy
2:15 AM 75.2 °F - 68.0 °F 78% 30.09 in 10.0 mi East 11.5 mph 19.6 mph N/A   Mostly Cloudy
2:35 AM 77.0 °F - 69.8 °F 78% 30.10 in 10.0 mi East 13.8 mph 18.4 mph N/A   Overcast
2:55 AM 77.0 °F - 69.8 °F 78% 30.09 in 10.0 mi East 13.8 mph 24.2 mph N/A   Overcast
3:15 AM 75.2 °F - 68.0 °F 78% 30.09 in 10.0 mi East 13.8 mph - N/A   Mostly Cloudy
3:35 AM 75.2 °F - 68.0 °F 78% 30.09 in 10.0 mi East 12.7 mph 18.4 mph N/A   Mostly Cloudy
3:55 AM 77.0 °F - 68.0 °F 74% 30.09 in 10.0 mi East 13.8 mph - N/A   Mostly Cloudy
4:15 AM 77.0 °F - 69.8 °F 78% 30.09 in 10.0 mi East 12.7 mph 21.9 mph N/A   Overcast
4:35 AM 77.0 °F - 69.8 °F 78% 30.09 in 10.0 mi East 12.7 mph 21.9 mph N/A   Overcast
4:55 AM 77.0 °F - 69.8 °F 78% 30.10 in 10.0 mi East 13.8 mph 19.6 mph N/A   Mostly Cloudy
5:15 AM 77.0 °F - 69.8 °F 78% 30.10 in 10.0 mi East 15.0 mph 20.7 mph N/A   Mostly Cloudy
5:35 AM 77.0 °F - 69.8 °F 78% 30.11 in 10.0 mi East 17.3 mph 20.7 mph N/A   Scattered Clouds
5:55 AM 77.0 °F - 69.8 °F 78% 30.11 in 10.0 mi East 16.1 mph 20.7 mph N/A   Mostly Cloudy
6:15 AM 77.0 °F - 68.0 °F 74% 30.11 in 10.0 mi East 13.8 mph 21.9 mph 0.01 in   Mostly Cloudy
6:47 AM 77.0 °F - 68.0 °F 74% 30.11 in 7.0 mi East 13.8 mph - N/A   Mostly Cloudy
7:50 AM 77.0 °F - 68.0 °F 74% 30.14 in 7.0 mi East 15.0 mph 20.7 mph N/A   Mostly Cloudy
8:47 AM 78.8 °F - 68.0 °F 69% 30.15 in 7.0 mi ESE 17.3 mph 23.0 mph N/A   Mostly Cloudy
9:47 AM 80.6 °F 83.2 °F 68.0 °F 65% 30.17 in 7.0 mi ESE 19.6 mph - N/A   Mostly Cloudy
10:47 AM 80.6 °F 83.2 °F 68.0 °F 65% 30.17 in 7.0 mi ESE 15.0 mph 23.0 mph N/A   Mostly Cloudy
11:47 AM 78.8 °F - 68.0 °F 69% 30.17 in 7.0 mi North - - N/A   Mostly Cloudy
12:47 PM 80.6 °F 83.2 °F 68.0 °F 65% 30.13 in 7.0 mi ESE 15.0 mph 23.0 mph N/A   Mostly Cloudy
2:50 PM 80.6 °F 83.2 °F 68.0 °F 65% 30.11 in 7.0 mi ESE 15.0 mph 23.0 mph N/A   Mostly Cloudy
3:47 PM 78.8 °F - 68.0 °F 69% 3.01 in 6.0 mi ESE 19.6 mph 27.6 mph N/A   Mostly Cloudy
4:47 PM 78.8 °F - 66.2 °F 65% 30.13 in 5.0 mi ESE 15.0 mph 27.6 mph N/A Rain Light Rain
5:55 PM 77.0 °F - 66.2 °F 69% 30.15 in 5.0 mi East 13.8 mph 20.7 mph N/A Rain Rain Showers
6:47 PM 77.0 °F - 64.4 °F 65% 30.16 in 7.0 mi East 15.0 mph 20.7 mph N/A   Overcast
8:15 PM 77.0 °F - 64.4 °F 65% 30.17 in 10.0 mi East 12.7 mph 17.3 mph N/A   Scattered Clouds
8:35 PM 78.8 °F - 64.4 °F 61% 30.17 in 10.0 mi East 12.7 mph 19.6 mph N/A   Scattered Clouds
8:55 PM 77.0 °F - 66.2 °F 69% 30.18 in 10.0 mi East 12.7 mph - N/A   Scattered Clouds
9:15 PM 77.0 °F - 66.2 °F 69% 30.18 in 10.0 mi East 13.8 mph 19.6 mph N/A   Mostly Cloudy
9:35 PM 77.0 °F - 68.0 °F 74% 30.18 in 10.0 mi East 12.7 mph 18.4 mph N/A   Overcast
9:55 PM 78.8 °F - 66.2 °F 65% 30.18 in 10.0 mi East 10.4 mph 17.3 mph N/A   Overcast
10:15 PM 78.8 °F - 68.0 °F 69% 30.18 in 10.0 mi East 12.7 mph 18.4 mph N/A   Overcast
10:35 PM 77.0 °F - 68.0 °F 74% 30.17 in 10.0 mi ESE 13.8 mph - N/A   Overcast
10:55 PM 78.8 °F - 68.0 °F 69% 30.18 in 10.0 mi East 13.8 mph 19.6 mph N/A   Overcast
11:15 PM 78.8 °F - 66.2 °F 65% 30.17 in 10.0 mi East 11.5 mph 20.7 mph N/A   Overcast
11:35 PM 78.8 °F - 66.2 °F 65% 30.17 in 10.0 mi ESE 13.8 mph 23.0 mph N/A   Overcast
11:55 PM 77.0 °F - 66.2 °F 69% 30.17 in 10.0 mi East 16.1 mph 19.6 mph N/A   Mostly Cloudy